Regional Weather Roundup
Issued by NWS Binghamton, NY

Home | Current Version | Previous Version | Text Only | Print | Product List | Glossary On
Versions: 1 2 3 4 5 6 7 8 9 10 11 12 13 14 15 16 17 18 19 20 21 22 23 24 25 26 27 28 29 30 31 32 33 34 35 36 37 38 39 40 41 42 43 44 45 46 47 48 49 50
000
ASUS41 KBGM 010010
RWRBGM

REGIONAL WEATHER ROUNDUP
NATIONAL WEATHER SERVICE BINGHAMTON NY
800 PM EDT SUN APR 30 2017

Note: "fair" indicates few or no clouds below 12,000 feet with no
significant weather and/or obstructions to visibility.

* = Station(s) that does not report precipitation, such as rain,
snow, etc, also no thunder or fog.

NYZ009-015>018-022>025-036-037-044>046-055>057-062-010100
...Central New York...

CITY           SKY/WX    TMP DP  RH WIND       PRES   REMARKS
Binghamton     CLOUDY    59  44  57 S13       30.05S
Cortland       FAIR      63  50  63 SE3       30.02F
Dansville      PTCLDY    73  55  53 S8        29.92S
Elmira         CLEAR     69  53  56 S10       29.99F
Seneca Falls   PTCLDY    64  52  63 S10       29.96S
Ithaca         PTCLDY    64  50  60 SE13      30.01F
Hamilton       CLEAR     57  43  58 S13G18    30.04F
Monticello     CLOUDY    54  39  58 SE7       30.17S
Norwich        MOCLDY    57  43  58 S10       30.07S
Penn Yan       PTCLDY    67  50  54 S12       29.96F
Rome           PTCLDY    51  40  65 E9        30.08F
Sidney         PTCLDY    55  43  62 S3        30.08S
Syracuse       MOCLDY    55  43  63 E14       29.98F
$$

PAZ038>040-043-044-047-048-072-010100
...Northeast Pennsylvania...

CITY           SKY/WX    TMP DP  RH WIND       PRES   REMARKS
Hazleton       MOCLDY    55  43  62 E6        30.13F
Scranton       CLOUDY    61  44  53 VRB5      30.09F
$$
&&
KEY
WCI = Wind Chill Index
VSB = Visibility
HX  = Heat Index
$$



USA.gov is the U.S. government's official web portal to all federal, state and local government web resources and services.